カタログに戻る

CZ-6A DEB

運用中PO
NORAD 60877·DEBRIS·🇨🇳 China

打ち上げ Aug 6, 2024 から Taiyuan Satellite Launch Center

Loading…

次のパス (今後24時間)

TLE

最新Source: Space-Track

元期: Sep 14, 2026, 18:01 UTC

1 60877U 24140KG  26257.75115752  .00000168  00000-0  10610-3 0  9990
2 60877  89.0675 274.7891 0179636  21.8381 339.0326 13.91981404105640

AllMySatでCZ-6A DEBをリアルタイム追跡

Download on the App Store